Location: Chiroubles
(46.1812°N, 4.6660°E)
Time: 22:18:39
(UTC+00:00)

Vanguard 1 - All Passes

Search period start: 05 December 2020 00:00
Search period end: 15 December 2020 00:00
Orbit: 650 x 3833 km, 34.2° (Epoch: 05 December)

Date Brightness Start Highest point End Pass type
(mag) Time Alt. Az. Time Alt. Az. Time Alt. Az.
05 Dec - 03:45:53 10° SW 03:50:01 25° SSE 03:55:47 10° ESE visible
05 Dec - 06:03:55 10° WSW 06:09:42 33° S 06:19:05 10° SE visible
05 Dec - 08:23:45 10° WSW 08:30:40 23° SSW 08:40:58 10° SSE daylight
06 Dec - 04:06:14 10° SW 04:10:35 27° SSE 04:16:48 10° ESE visible
06 Dec - 06:24:41 10° WSW 06:30:28 30° S 06:39:40 10° SE visible
06 Dec - 08:45:25 10° WSW 08:51:34 18° SSW 09:00:01 10° SSE daylight
07 Dec - 02:09:50 10° S 02:12:09 14° SSE 02:14:44 10° SE visible
07 Dec - 04:26:43 10° SW 04:31:12 28° S 04:37:42 10° ESE visible
07 Dec - 06:45:35 10° WSW 06:51:16 26° SSW 06:59:59 10° SE daylight
07 Dec - 09:08:04 10° SW 09:12:28 13° SSW 09:17:51 10° S daylight
08 Dec - 02:29:37 10° SSW 02:32:38 17° SSE 02:36:09 10° ESE visible
08 Dec - 04:47:19 10° WSW 04:51:51 28° S 04:58:30 10° SE visible
08 Dec - 07:06:42 10° WSW 07:12:05 21° SSW 07:19:55 10° SSE daylight
09 Dec - 02:49:46 10° SW 02:53:09 20° SSE 02:57:15 10° ESE visible
09 Dec - 05:08:01 10° WSW 05:12:33 26° S 05:19:07 10° SE visible
09 Dec - 07:28:12 10° SW 07:32:56 17° SSW 07:39:17 10° SSE daylight
10 Dec - 03:10:09 10° SW 03:13:44 22° S 03:18:10 10° ESE visible
10 Dec - 05:28:52 10° WSW 05:33:16 23° S 05:39:31 10° SE visible
10 Dec - 07:50:40 10° SW 07:53:47 12° SSW 07:57:29 10° S daylight
11 Dec - 01:13:13 10° S 01:15:14 13° SSE 01:17:18 10° SE night (unlit)
11 Dec - 03:30:41 10° SW 03:34:20 23° S 03:38:56 10° SE visible
11 Dec - 05:49:55 10° SW 05:54:01 19° SSW 05:59:35 10° SSE visible
12 Dec - 01:33:03 10° SSW 01:35:48 16° SSE 01:38:38 10° SE night (unlit)
12 Dec - 03:51:20 10° SW 03:54:59 22° S 03:59:34 10° SE visible
12 Dec - 06:11:22 10° SW 06:14:47 15° SSW 06:19:07 10° SSE visible
13 Dec - 01:53:17 10° SW 01:56:22 18° S 01:59:37 10° SE night (unlit)
13 Dec - 04:12:09 10° SW 04:15:38 20° S 04:20:00 10° SE visible
13 Dec - 06:34:03 10° SSW 06:35:34 11° SSW 06:37:13 10° S visible
13 Dec - 23:56:13 10° S 23:57:45 11° SSE 23:59:13 10° SE night (unlit)
14 Dec - 02:13:44 10° SW 02:16:58 20° S 02:20:25 10° SE visible
14 Dec - 04:33:10 10° SW 04:36:18 17° S 04:40:09 10° SSE visible
